STARLINK-35746

Last updated on Wed Dec 31 2025 00:02:06 GMT+0000 (Coordinated Universal Time)

1 66582U 25268AB 25364.58335648 .00073727 00000+0 26670-2 0 9990 2 66582 43.0010 17.0630 0001146 280.7164 92.1724 15.27518689 6029
UTC large
Height (km)
Speed (km/s)
/
Latitude / Longitude
Inclination (degrees)
Orbital Period (minutes)
Azimuth
Elevation
Range (km)
Doppler Factor

Next 0 passes for location: London (51.5072 / 0.1276)

Sorry there are no passes over London.